• In Deutschland
  • Länderverzeichnis
  • Für 7 Tage
  • Wassertemperatur
  • Satellitenkarten
  • Wetterkarte
  • Widgets
  • user-avatar
    Anmelden

    Stündliche Wetter Pinsk

    Heute, 26 Juni, Montag

    Zeit Temperatur Niederschläge Wind Luftdruck Luftfeuchtigkeit
    00:00 +19°C° 0,2 mm 2 m/S 744 mmHg 77%
    01:00 +19°C° 0,2 mm 2 m/S 744 mmHg 80%
    02:00 +19°C° 0 mm 2 m/S 743 mmHg 82%
    03:00 +18°C° 0,1 mm 2 m/S 744 mmHg 84%
    04:00 +18°C° 0,1 mm 2 m/S 744 mmHg 86%
    05:00 +18°C° 0,1 mm 2 m/S 744 mmHg 88%
    06:00 +19°C° 0 mm 2 m/S 744 mmHg 85%
    07:00 +20°C° 0 mm 2 m/S 744 mmHg 81%
    08:00 +21°C° 0 mm 2 m/S 744 mmHg 77%
    09:00 +22°C° 0,1 mm 3 m/S 744 mmHg 70%
    10:00 +24°C° 0,1 mm 3 m/S 744 mmHg 64%
    11:00 +25°C° 0,1 mm 4 m/S 744 mmHg 57%
    12:00 +25°C° 0,2 mm 4 m/S 744 mmHg 58%
    13:00 +25°C° 0,2 mm 4 m/S 744 mmHg 58%
    14:00 +25°C° 0,2 mm 4 m/S 744 mmHg 58%
    15:00 +25°C° 0,1 mm 4 m/S 744 mmHg 59%
    16:00 +25°C° 0,1 mm 3 m/S 744 mmHg 59%
    17:00 +24°C° 0,1 mm 3 m/S 744 mmHg 60%
    18:00 +22°C° 0 mm 3 m/S 744 mmHg 64%
    19:00 +21°C° 0 mm 2 m/S 744 mmHg 69%
    20:00 +20°C° 0 mm 2 m/S 744 mmHg 74%
    21:00 +19°C° 0 mm 2 m/S 744 mmHg 76%
    22:00 +18°C° 0 mm 2 m/S 745 mmHg 79%
    23:00 +17°C° 0 mm 2 m/S 745 mmHg 81%

    Morgen, 27 Juni, Dienstag

    Zeit Temperatur Niederschläge Wind Luftdruck Luftfeuchtigkeit
    00:00 +17°C° 0 mm 2 m/S 745 mmHg 85%
    01:00 +16°C° 0 mm 2 m/S 746 mmHg 89%
    02:00 +15°C° 0 mm 1 m/S 746 mmHg 92%
    03:00 +15°C° 0 mm 1 m/S 746 mmHg 93%
    04:00 +14°C° 0 mm 1 m/S 746 mmHg 94%
    05:00 +13°C° 0 mm 1 m/S 747 mmHg 95%
    06:00 +15°C° 0 mm 2 m/S 747 mmHg 84%
    07:00 +17°C° 0 mm 2 m/S 747 mmHg 72%
    08:00 +19°C° 0 mm 2 m/S 747 mmHg 61%
    09:00 +20°C° 0 mm 2 m/S 748 mmHg 54%
    10:00 +21°C° 0 mm 2 m/S 748 mmHg 47%
    11:00 +24°C° 0 mm 2 m/S 748 mmHg 40%
    12:00 +24°C° 0 mm 2 m/S 748 mmHg 39%
    13:00 +25°C° 0 mm 3 m/S 747 mmHg 37%
    14:00 +26°C° 0 mm 3 m/S 747 mmHg 36%
    15:00 +26°C° 0 mm 3 m/S 747 mmHg 37%
    16:00 +26°C° 0 mm 2 m/S 747 mmHg 38%
    17:00 +26°C° 0 mm 2 m/S 746 mmHg 39%
    18:00 +24°C° 0 mm 2 m/S 747 mmHg 49%
    19:00 +22°C° 0 mm 1 m/S 747 mmHg 59%
    20:00 +20°C° 0 mm 1 m/S 747 mmHg 68%
    21:00 +19°C° 0 mm 1 m/S 747 mmHg 70%
    22:00 +16°C° 0 mm 1 m/S 747 mmHg 71%
    23:00 +15°C° 0 mm 1 m/S 747 mmHg 72%

    übermorgen, 28 Juni, Mittwoch

    Zeit Temperatur Niederschläge Wind Luftdruck Luftfeuchtigkeit
    00:00 +15°C° 0 mm 1 m/S 747 mmHg 75%
    01:00 +14°C° 0 mm 1 m/S 747 mmHg 77%
    02:00 +14°C° 0 mm 1 m/S 748 mmHg 80%
    03:00 +14°C° 0 mm 1 m/S 748 mmHg 80%
    04:00 +14°C° 0 mm 1 m/S 748 mmHg 80%
    05:00 +14°C° 0 mm 1 m/S 748 mmHg 80%
    06:00 +16°C° 0 mm 2 m/S 748 mmHg 74%
    07:00 +18°C° 0 mm 2 m/S 748 mmHg 67%
    08:00 +20°C° 0 mm 2 m/S 748 mmHg 61%
    09:00 +24°C° 0 mm 2 m/S 747 mmHg 57%
    10:00 +26°C° 0 mm 2 m/S 747 mmHg 52%
    11:00 +28°C° 0 mm 2 m/S 747 mmHg 48%
    12:00 +29°C° 0,1 mm 2 m/S 747 mmHg 48%
    13:00 +29°C° 0,1 mm 2 m/S 746 mmHg 47%
    14:00 +30°C° 0,1 mm 2 m/S 746 mmHg 47%
    15:00 +30°C° 0,2 mm 2 m/S 746 mmHg 50%
    16:00 +30°C° 0,2 mm 2 m/S 745 mmHg 53%
    17:00 +30°C° 0,2 mm 2 m/S 745 mmHg 56%
    18:00 +28°C° 0,1 mm 2 m/S 745 mmHg 63%
    19:00 +26°C° 0,1 mm 2 m/S 745 mmHg 69%
    20:00 +25°C° 0,1 mm 2 m/S 744 mmHg 76%
    21:00 +24°C° 0,1 mm 2 m/S 744 mmHg 75%
    22:00 +22°C° 0,1 mm 3 m/S 744 mmHg 75%
    23:00 +22°C° 0,1 mm 3 m/S 744 mmHg 75%

    29 Juni, Donnerstag

    Zeit Temperatur Niederschläge Wind Luftdruck Luftfeuchtigkeit
    00:00 +21°C° 0,2 mm 3 m/S 744 mmHg 77%
    01:00 +20°C° 0,2 mm 3 m/S 744 mmHg 79%
    02:00 +20°C° 0,2 mm 3 m/S 743 mmHg 81%
    03:00 +20°C° 0,1 mm 3 m/S 743 mmHg 81%
    04:00 +20°C° 0,1 mm 3 m/S 743 mmHg 81%
    05:00 +19°C° 0,1 mm 3 m/S 743 mmHg 81%
    06:00 +21°C° 0 mm 4 m/S 743 mmHg 75%
    07:00 +23°C° 0 mm 4 m/S 742 mmHg 68%
    08:00 +26°C° 0 mm 5 m/S 742 mmHg 62%
    09:00 +28°C° 0 mm 5 m/S 742 mmHg 55%
    10:00 +30°C° 0 mm 5 m/S 742 mmHg 49%
    11:00 +33°C° 0 mm 6 m/S 741 mmHg 43%
    12:00 +34°C° 0 mm 6 m/S 741 mmHg 40%
    13:00 +35°C° 0 mm 6 m/S 741 mmHg 38%
    14:00 +36°C° 0 mm 6 m/S 740 mmHg 35%
    15:00 +35°C° 0,1 mm 6 m/S 740 mmHg 37%
    16:00 +35°C° 0,1 mm 6 m/S 740 mmHg 39%
    17:00 +34°C° 0,1 mm 6 m/S 740 mmHg 41%
    18:00 +30°C° 1,9 mm 5 m/S 740 mmHg 55%
    19:00 +27°C° 1,9 mm 3 m/S 740 mmHg 70%
    20:00 +24°C° 1,9 mm 2 m/S 740 mmHg 84%
    21:00 +24°C° 1,2 mm 3 m/S 740 mmHg 85%
    22:00 +22°C° 1,2 mm 3 m/S 740 mmHg 86%
    23:00 +22°C° 1,2 mm 3 m/S 740 mmHg 87%

    30 Juni, Freitag

    Zeit Temperatur Niederschläge Wind Luftdruck Luftfeuchtigkeit
    00:00 +21°C° 0,4 mm 3 m/S 740 mmHg 87%
    01:00 +21°C° 0,4 mm 3 m/S 740 mmHg 87%
    02:00 +21°C° 0,4 mm 3 m/S 740 mmHg 87%
    03:00 +20°C° 0,1 mm 3 m/S 740 mmHg 87%
    04:00 +20°C° 0,1 mm 3 m/S 740 mmHg 87%
    05:00 +20°C° 0,1 mm 3 m/S 740 mmHg 87%
    06:00 +21°C° 0 mm 4 m/S 740 mmHg 78%
    07:00 +22°C° 0 mm 4 m/S 740 mmHg 69%
    08:00 +23°C° 0 mm 5 m/S 741 mmHg 59%
    09:00 +25°C° 0 mm 5 m/S 741 mmHg 55%
    10:00 +26°C° 0 mm 5 m/S 741 mmHg 50%
    11:00 +28°C° 0 mm 6 m/S 741 mmHg 45%
    12:00 +28°C° 0,1 mm 6 m/S 741 mmHg 43%
    13:00 +28°C° 0,1 mm 6 m/S 742 mmHg 41%
    14:00 +29°C° 0,1 mm 6 m/S 742 mmHg 39%
    15:00 +28°C° 0,1 mm 5 m/S 742 mmHg 44%
    16:00 +27°C° 0,1 mm 4 m/S 742 mmHg 49%
    17:00 +26°C° 0,1 mm 4 m/S 742 mmHg 53%
    18:00 +25°C° 0 mm 3 m/S 742 mmHg 58%
    19:00 +24°C° 0 mm 3 m/S 742 mmHg 62%
    20:00 +21°C° 0 mm 2 m/S 742 mmHg 66%
    21:00 +21°C° 0 mm 2 m/S 743 mmHg 66%
    22:00 +20°C° 0 mm 2 m/S 743 mmHg 66%
    23:00 +19°C° 0 mm 2 m/S 743 mmHg 65%

    1 Juli, Samstag

    Zeit Temperatur Niederschläge Wind Luftdruck Luftfeuchtigkeit
    00:00 +19°C° 0 mm 2 m/S 743 mmHg 66%
    01:00 +18°C° 0 mm 2 m/S 744 mmHg 66%
    02:00 +18°C° 0 mm 2 m/S 744 mmHg 67%
    03:00 +17°C° 0 mm 2 m/S 744 mmHg 70%
    04:00 +17°C° 0 mm 3 m/S 744 mmHg 73%
    05:00 +16°C° 0 mm 3 m/S 744 mmHg 76%
    06:00 +18°C° 0 mm 3 m/S 744 mmHg 69%
    07:00 +20°C° 0 mm 3 m/S 744 mmHg 63%
    08:00 +21°C° 0 mm 4 m/S 745 mmHg 57%
    09:00 +23°C° 0 mm 4 m/S 744 mmHg 50%
    10:00 +25°C° 0 mm 5 m/S 744 mmHg 43%
    11:00 +27°C° 0 mm 5 m/S 744 mmHg 36%
    12:00 +27°C° 0 mm 5 m/S 744 mmHg 35%
    13:00 +28°C° 0 mm 5 m/S 744 mmHg 34%
    14:00 +28°C° 0 mm 5 m/S 743 mmHg 33%
    15:00 +28°C° 0 mm 4 m/S 743 mmHg 38%
    16:00 +28°C° 0 mm 3 m/S 743 mmHg 42%
    17:00 +27°C° 0 mm 3 m/S 743 mmHg 47%
    18:00 +26°C° 0 mm 2 m/S 743 mmHg 52%
    19:00 +24°C° 0 mm 2 m/S 743 mmHg 57%
    20:00 +23°C° 0 mm 2 m/S 743 mmHg 63%
    21:00 +21°C° 0 mm 2 m/S 743 mmHg 64%
    22:00 +19°C° 0 mm 2 m/S 743 mmHg 66%
    23:00 +18°C° 0 mm 2 m/S 743 mmHg 68%
    Mehr zeigen